Orbital Elements at Epoch 2459200.5 (2020-Dec-17.0) TDB
Reference: JPL 13 (heliocentric ecliptic J2000)
Element | Value | Uncertainty (1-sigma) | Units |
e | .2027858401094154 | 3.9151e-08 | |
a | 2.331322952095696 | 9.4936e-09 | au |
q | 1.858563668688607 | 9.4402e-08 | au |
i | 1.755113192549024 | 6.1302e-06 | deg |
node | 346.4342666945068 | 0.00012517 | deg |
peri | 86.78316365207783 | 0.00012682 | deg |
M | 53.84052429661627 | 2.2782e-05 | deg |
tp | 2459006.049588952752 (2020-Jun-05.54958895) | 8.141e-05 | TDB |
period | 1300.175822793923 3.56 | 7.9418e-06 2.174e-08 | d yr |
n | .2768856286116771 | 1.6913e-09 | deg/d |
Q | 2.804082235502784 | 1.1419e-08 | au |
|
| | Orbit Determination Parameters
Additional Information
|